Location: Allen Fire Department Station 4
(33.1073°N, 96.6988°W)
Time: 16:32:08
(UTC+00:00)

Aurora 2 Rocket - Pass Details

Date: 02 July 2022
Orbit: 389 x 1718 km, 25.0° (Epoch: 06 August)

Event Time Altitude Azimuth Distance (km) Brightness Sun altitude
Rises 02:19:03 0° 222° (SW) 4,887 7.2 -7.9°
Reaches altitude 10° 02:23:20 10° 210° (SSW) 3,770 6.5 -8.6°
Maximum altitude 02:30:38 24° 163° (SSE) 2,516 5.2 -9.8°
Enters shadow 02:35:54 13° 117° (ESE) 2,906 5.3 -10.7°
